When you browse on this site, cookies collect data to enhance your experience and personalize the content and advertising you see.
Visit our Privacy Policy to learn more. By continuing to use the site, you agree to this use of cookies and data.
  • In Austria
  • List of Countries
  • For 7 days
  • Water Temperature
  • Weather Map
  • News
  • Weather Widgets
  • user-avatar
    Login

    Hourly Weather Suarez

    Today, 17 September, Tuesday

    Time Temperature Precipitation Wind Pressure Humidity
    00:00 +21°C° 0.5 mm 1 mps 666 mmHg 95%
    01:00 +19°C° 0.5 mm 0 mps 665 mmHg 95%
    02:00 +19°C° 0.4 mm 0 mps 665 mmHg 95%
    03:00 +19°C° 0.4 mm 0 mps 665 mmHg 95%
    04:00 +19°C° 0.4 mm 0 mps 665 mmHg 95%
    05:00 +19°C° 0.1 mm 0 mps 665 mmHg 94%
    06:00 +19°C° 0.1 mm 0 mps 666 mmHg 93%
    07:00 +19°C° 0.1 mm 0 mps 666 mmHg 92%
    08:00 +21°C° 0.1 mm 0 mps 667 mmHg 84%
    09:00 +24°C° 0.1 mm 0 mps 668 mmHg 76%
    10:00 +28°C° 0.1 mm 1 mps 668 mmHg 69%
    11:00 +27°C° 0.7 mm 1 mps 667 mmHg 71%
    12:00 +27°C° 0.7 mm 1 mps 667 mmHg 73%
    13:00 +27°C° 0.7 mm 2 mps 666 mmHg 76%
    14:00 +26°C° 1.5 mm 1 mps 665 mmHg 80%
    15:00 +26°C° 1.5 mm 1 mps 665 mmHg 83%
    16:00 +25°C° 1.5 mm 1 mps 664 mmHg 87%
    17:00 +24°C° 1.1 mm 1 mps 664 mmHg 90%
    18:00 +23°C° 1.1 mm 1 mps 665 mmHg 93%
    19:00 +22°C° 1.1 mm 1 mps 665 mmHg 95%
    20:00 +22°C° 1.6 mm 1 mps 665 mmHg 96%
    21:00 +22°C° 1.6 mm 1 mps 666 mmHg 96%
    22:00 +22°C° 1.6 mm 1 mps 666 mmHg 96%
    23:00 +21°C° 1.3 mm 1 mps 666 mmHg 96%

    Tomorrow, 18 September, Wednesday

    Time Temperature Precipitation Wind Pressure Humidity
    00:00 +19°C° 1.3 mm 0 mps 666 mmHg 96%
    01:00 +19°C° 1.3 mm 0 mps 665 mmHg 96%
    02:00 +19°C° 0.8 mm 0 mps 665 mmHg 96%
    03:00 +19°C° 0.8 mm 0 mps 665 mmHg 95%
    04:00 +19°C° 0.8 mm 0 mps 664 mmHg 95%
    05:00 +19°C° 0.5 mm 0 mps 665 mmHg 94%
    06:00 +19°C° 0.5 mm 0 mps 665 mmHg 94%
    07:00 +19°C° 0.5 mm 0 mps 666 mmHg 93%
    08:00 +21°C° 0.2 mm 0 mps 666 mmHg 87%
    09:00 +24°C° 0.2 mm 1 mps 667 mmHg 81%
    10:00 +26°C° 0.2 mm 1 mps 667 mmHg 75%
    11:00 +26°C° 0.8 mm 1 mps 667 mmHg 78%
    12:00 +26°C° 0.8 mm 1 mps 666 mmHg 81%
    13:00 +26°C° 0.8 mm 1 mps 665 mmHg 83%
    14:00 +25°C° 1.3 mm 1 mps 665 mmHg 85%
    15:00 +25°C° 1.3 mm 1 mps 664 mmHg 87%
    16:00 +24°C° 1.3 mm 1 mps 664 mmHg 89%
    17:00 +23°C° 0.7 mm 1 mps 664 mmHg 91%
    18:00 +22°C° 0.7 mm 1 mps 664 mmHg 93%
    19:00 +20°C° 0.7 mm 0 mps 664 mmHg 96%
    20:00 +20°C° 0.2 mm 0 mps 665 mmHg 96%
    21:00 +20°C° 0.2 mm 0 mps 665 mmHg 96%
    22:00 +19°C° 0.2 mm 0 mps 666 mmHg 96%
    23:00 +19°C° 0.3 mm 0 mps 665 mmHg 96%

    Day after tomorrow, 19 September, Thursday

    Time Temperature Precipitation Wind Pressure Humidity
    00:00 +19°C° 0.3 mm 0 mps 665 mmHg 97%
    01:00 +19°C° 0.3 mm 0 mps 665 mmHg 97%
    02:00 +19°C° 0.4 mm 0 mps 665 mmHg 97%
    03:00 +19°C° 0.4 mm 0 mps 664 mmHg 97%
    04:00 +19°C° 0.4 mm 0 mps 664 mmHg 97%
    05:00 +19°C° 0.2 mm 0 mps 665 mmHg 97%
    06:00 +19°C° 0.2 mm 0 mps 665 mmHg 96%
    07:00 +19°C° 0.2 mm 0 mps 665 mmHg 96%
    08:00 +21°C° 0.3 mm 0 mps 666 mmHg 90%
    09:00 +22°C° 0.3 mm 0 mps 666 mmHg 85%
    10:00 +24°C° 0.3 mm 0 mps 667 mmHg 79%
    11:00 +26°C° 1.6 mm 1 mps 666 mmHg 81%
    12:00 +26°C° 1.6 mm 1 mps 665 mmHg 83%
    13:00 +25°C° 1.6 mm 1 mps 665 mmHg 84%
    14:00 +25°C° 1.6 mm 1 mps 664 mmHg 87%
    15:00 +24°C° 1.6 mm 1 mps 664 mmHg 90%
    16:00 +23°C° 1.6 mm 1 mps 664 mmHg 93%
    17:00 +20°C° 2.2 mm 0 mps 664 mmHg 95%
    18:00 +20°C° 2.2 mm 0 mps 664 mmHg 96%
    19:00 +19°C° 2.2 mm 0 mps 664 mmHg 98%
    20:00 +19°C° 0.8 mm 0 mps 665 mmHg 98%
    21:00 +19°C° 0.8 mm 0 mps 665 mmHg 98%
    22:00 +19°C° 0.8 mm 0 mps 665 mmHg 98%
    23:00 +19°C° 0.4 mm 0 mps 665 mmHg 98%

    20 September, Friday

    Time Temperature Precipitation Wind Pressure Humidity
    00:00 +19°C° 0.4 mm 0 mps 665 mmHg 98%
    01:00 +19°C° 0.4 mm 0 mps 665 mmHg 98%
    02:00 +19°C° 1.2 mm 0 mps 665 mmHg 98%
    03:00 +19°C° 1.2 mm 0 mps 665 mmHg 98%
    04:00 +19°C° 1.2 mm 0 mps 664 mmHg 98%
    05:00 +19°C° 2.8 mm 0 mps 665 mmHg 98%
    06:00 +19°C° 2.8 mm 0 mps 666 mmHg 98%
    07:00 +19°C° 2.8 mm 0 mps 666 mmHg 98%
    08:00 +20°C° 0.8 mm 0 mps 667 mmHg 95%
    09:00 +23°C° 0.8 mm 1 mps 667 mmHg 91%
    10:00 +24°C° 0.8 mm 1 mps 667 mmHg 88%
    11:00 +23°C° 0.5 mm 1 mps 667 mmHg 89%
    12:00 +23°C° 0.5 mm 1 mps 667 mmHg 90%
    13:00 +23°C° 0.5 mm 1 mps 666 mmHg 91%
    14:00 +23°C° 0.5 mm 1 mps 666 mmHg 90%
    15:00 +23°C° 0.5 mm 1 mps 665 mmHg 89%
    16:00 +23°C° 0.5 mm 1 mps 665 mmHg 89%
    17:00 +20°C° 0 mm 0 mps 665 mmHg 91%
    18:00 +19°C° 0 mm 0 mps 665 mmHg 94%
    19:00 +19°C° 0 mm 0 mps 665 mmHg 96%
    20:00 +18°C° 0 mm 0 mps 665 mmHg 95%
    21:00 +18°C° 0 mm 0 mps 665 mmHg 95%
    22:00 +18°C° 0 mm 0 mps 666 mmHg 94%
    23:00 +17°C° 0 mm 0 mps 666 mmHg 93%

    21 September, Saturday

    Time Temperature Precipitation Wind Pressure Humidity
    00:00 +17°C° 0 mm 0 mps 665 mmHg 92%
    01:00 +17°C° 0 mm 0 mps 665 mmHg 91%
    02:00 +17°C° 0 mm 0 mps 665 mmHg 91%
    03:00 +17°C° 0 mm 0 mps 665 mmHg 91%
    04:00 +17°C° 0 mm 0 mps 665 mmHg 91%
    05:00 +17°C° 0 mm 0 mps 665 mmHg 90%
    06:00 +18°C° 0 mm 0 mps 666 mmHg 89%
    07:00 +18°C° 0 mm 0 mps 667 mmHg 87%
    08:00 +21°C° 0 mm 0 mps 667 mmHg 79%
    09:00 +23°C° 0 mm 0 mps 668 mmHg 70%
    10:00 +28°C° 0 mm 1 mps 668 mmHg 62%
    11:00 +28°C° 0.2 mm 1 mps 668 mmHg 61%
    12:00 +29°C° 0.2 mm 1 mps 667 mmHg 61%
    13:00 +29°C° 0.2 mm 1 mps 667 mmHg 60%
    14:00 +28°C° 0.6 mm 2 mps 666 mmHg 67%
    15:00 +27°C° 0.6 mm 2 mps 665 mmHg 74%
    16:00 +26°C° 0.6 mm 2 mps 664 mmHg 81%
    17:00 +24°C° 0.8 mm 1 mps 664 mmHg 85%
    18:00 +23°C° 0.8 mm 1 mps 665 mmHg 90%
    19:00 +22°C° 0.8 mm 1 mps 665 mmHg 95%
    20:00 +21°C° 0.2 mm 1 mps 665 mmHg 95%
    21:00 +21°C° 0.2 mm 1 mps 666 mmHg 95%
    22:00 +21°C° 0.2 mm 1 mps 666 mmHg 95%
    23:00 +21°C° 0.2 mm 1 mps 666 mmHg 95%

    22 September, Sunday

    Time Temperature Precipitation Wind Pressure Humidity
    00:00 +19°C° 0.2 mm 0 mps 666 mmHg 95%
    01:00 +19°C° 0.2 mm 0 mps 665 mmHg 95%
    02:00 +18°C° 0.1 mm 0 mps 665 mmHg 95%
    03:00 +18°C° 0.1 mm 0 mps 665 mmHg 96%
    04:00 +18°C° 0.1 mm 0 mps 665 mmHg 96%
    05:00 +18°C° 0 mm 0 mps 665 mmHg 95%
    06:00 +19°C° 0 mm 0 mps 666 mmHg 94%
    07:00 +19°C° 0 mm 0 mps 666 mmHg 92%
    08:00 +21°C° 0.1 mm 0 mps 667 mmHg 85%
    09:00 +23°C° 0.1 mm 0 mps 667 mmHg 78%
    10:00 +27°C° 0.1 mm 1 mps 668 mmHg 71%
    11:00 +27°C° 0.6 mm 1 mps 667 mmHg 72%
    12:00 +27°C° 0.6 mm 1 mps 666 mmHg 72%
    13:00 +27°C° 0.6 mm 1 mps 666 mmHg 73%
    14:00 +26°C° 1.1 mm 1 mps 665 mmHg 77%
    15:00 +26°C° 1.1 mm 1 mps 665 mmHg 81%
    16:00 +25°C° 1.1 mm 1 mps 664 mmHg 84%
    17:00 +24°C° 1.5 mm 1 mps 664 mmHg 88%
    18:00 +23°C° 1.5 mm 1 mps 665 mmHg 91%
    19:00 +22°C° 1.5 mm 1 mps 665 mmHg 94%
    20:00 +22°C° 0.8 mm 1 mps 666 mmHg 94%
    21:00 +22°C° 0.8 mm 1 mps 666 mmHg 94%
    22:00 +21°C° 0.8 mm 1 mps 666 mmHg 94%
    23:00 +21°C° 0.2 mm 1 mps 666 mmHg 95%
    Show more